OpenBCM V2.0.3 (Linux)

Packet Radio Mailbox

IZ3LSV

[San Dona' di P. JN]

 Login: GUEST





  
CX2SA  > KEP      05.12.19 15:21l 86 Lines 3612 Bytes #999 (0) @ ARL
BID : ARLK093
Read: GUEST
Subj: ARLK093 Keplerian data
Path: IZ3LSV<IQ2LB<IQ5KG<I0OJJ<GB7CIP<CX2SA
Sent: 191204/0002Z @:CX2SA.SAL.URY.SOAM #:20131 [Salto] FBB7.00e $:ARLK093
From: CX2SA@CX2SA.SAL.URY.SOAM
To  : KEP@ARL


ZCZC SK93
QST de W1AW
Keplerian Bulletin 93  ARLK093
From ARRL Headquarters
Newington, CT  December 3, 2019
To all radio amateurs

SB KEP ARL ARLK093
ARLK093 Keplerian data

Special thanks to AMSAT-NA (AMSAT.ORG) for the following Keplerian
data.

Decode 2-line elsets with the following key:
1 AAAAAU 00  0  0 BBBBB.BBBBBBBB  .CCCCCCCC  00000-0  00000-0 0  DDDZ
2 AAAAA EEE.EEEE FFF.FFFF GGGGGGG HHH.HHHH III.IIII JJ.JJJJJJJJKKKKKZ
KEY: A-CATALOGNUM B-EPOCHTIME C-DECAY D-ELSETNUM E-INCLINATION F-RAAN
G-ECCENTRICITY H-ARGPERIGEE I-MNANOM J-MNMOTION K-ORBITNUM Z-CHECKSUM

0 AO-07
1 7530U 74089B   19336.82229265 -.00000029 +00000-0 +10210-3 0  9990
2 7530 101.7705 302.9127 0012437 025.6605 088.7482 12.53641009061222
0 FO-29
1 24278U 96046B   19336.81192183 +.00000006 +00000-0 +41083-4 0  9999
2 24278 098.5622 107.7606 0350593 166.6721 194.3979 13.53094904150150
0 ISS
1 25544U 98067A   19337.25350896  .00000681  00000-0  19908-4 0  9997
2 25544  51.6431 243.1072 0006794 355.9948 146.8694 15.50084818201483
0 SO-50
1 27607U 02058C   19336.88059543 -.00000047 +00000-0 +14236-4 0  9993
2 27607 064.5554 258.4310 0070884 223.6932 135.8547 14.75592671911573
0 CO-55
1 27844U 03031E   19336.67251067 +.00000044 +00000-0 +39628-4 0  9998
2 27844 098.6840 342.3897 0008812 267.7274 092.2895 14.22208611851985
0 RS-22
1 27939U 03042A   19336.90537519 +.00000057 +00000-0 +18883-4 0  9994
2 27939 098.0640 109.7072 0011812 256.5903 103.3977 14.66821305865058
0 RS-30
1 32953U 08025A   19336.89005863 +.00000021 +00000-0 +75656-4 0  9994
2 32953 082.5068 040.7805 0020273 124.2987 236.0017 12.43092523523082
0 KKS-1
1 33499U 09002H   19336.90914953 +.00000071 +00000-0 +18504-4 0  9991
2 33499 098.3347 180.8513 0009935 040.3072 319.8871 14.75484585583455
0 AO-71
1 37854U 11061E   19336.91786529 +.00001238 +00000-0 +70462-4 0  9992
2 37854 101.7121 321.1968 0159541 289.0564 069.3428 15.06838348441727
0 AO-73
1 39444U 13066AE  19336.74801547 +.00000229 +00000-0 +34457-4 0  9998
2 39444 097.5579 342.9509 0057564 198.0040 161.9136 14.82020076324083
0 UKUBE 1
1 40074U 14037F   19336.83612966 +.00000279 +00000-0 +40569-4 0  9999
2 40074 098.4490 148.4640 0005657 046.4631 313.7050 14.84146824292447
0 XW-2A
1 40903U 15049E   19336.88450983 +.00001483 +00000-0 +36301-4 0  9995
2 40903 097.3168 020.4426 0011663 258.4349 274.8276 15.42381102236017
0 XW-2F
1 40910U 15049M   19336.90626919 +.00000774 +00000-0 +41855-4 0  9992
2 40910 097.4652 338.2208 0014256 334.3982 113.6751 15.17569928232379
0 XW-2B
1 40911U 15049N   19336.88199576 +.00000547 +00000-0 +31947-4 0  9993
2 40911 097.4717 336.6122 0013582 344.3661 099.6203 15.15977896232230
0 IO-86
1 40931U 15052B   19336.85553783 +.00000814 +00000-0 +24115-4 0  9996
2 40931 005.9950 304.6154 0015306 005.4697 354.4306 14.76623441226009
0 CAS-4B
1 42759U 17034B   19336.88441653 +.00000122 +00000-0 +20964-4 0  9993
2 42759 043.0209 032.4505 0012024 231.2962 304.4885 15.09694016136104
0 CAS-4A
1 42761U 17034D   19336.90387303 +.00000209 +00000-0 +26193-4 0  9996
2 42761 043.0207 031.7711 0012557 232.3146 296.6923 15.09772692136105
0 AO-91
1 43017U 17073E   19336.74749604 +.00000726 +00000-0 +62294-4 0  9998
2 43017 097.7245 251.5749 0257207 334.7027 024.1768 14.78725908109945
0 AO-92
1 43137U 18004AC  19336.77661975 +.00000783 +00000-0 +35535-4 0  9994
2 43137 097.4704 044.0606 0010132 038.7525 321.4436 15.23747842104942

Keplerian bulletins are transmitted twice weekly from W1AW.  The
next scheduled transmission of these data will be Friday, December 6,
2019, at 2230z on Baudot and BPSK31.
NNNN


Read previous mail | Read next mail


 21.09.2026 12:16:10lGo back Go up